Change the Weather History Date:

Sunday, September 15, 2013

  Actual Average (KCTY) Record (KCTY)
Temperature  
Mean Temperature 81 °F 79 °F  
Max Temperature 95 °F 89 °F 96 °F (2013)
Min Temperature 69 °F 69 °F 62 °F (2010)
Cooling Degree Days 16 14  
Month to date cooling degree days 220  
Year to date cooling degree days 2158  
Growing Degree Days 31 (Base 50)    
Moisture  
Dew Point 70 °F    
Average Humidity 75    
Maximum Humidity 100    
Minimum Humidity 41    
Precipitation  
Precipitation 0.00 in 0.16 in 0.57 in (2003)
Month to date precipitation 2.66  
Year to date precipitation 38.03  
Sea Level Pressure  
Sea Level Pressure 30.03 in    
Wind  
Wind Speed 2 mph (East)    
Max Wind Speed 14 mph    
Max Gust Speed 23 mph    
Visibility 8 miles    
Events Rain , Thunderstorm    
T = Trace of Precipitation, MM = Missing Value Source: NWS Daily Summary

Daily Weather History Graph

Daily Weather History Graph

Search for Another Location

Airport or City:

Trip Planner

Search our weather history database for the weather conditions in past years. The results will help you decide how hot, cold, wet, or windy it might be!

Date:

Astronomy

Sep. 15, 2013 Rise Set
Actual Time 7:18 AM EDT 7:39 PM EDT
Civil Twilight 6:54 AM EDT 8:03 PM EDT
Nautical Twilight 6:26 AM EDT 8:31 PM EDT
Astronomical Twilight 5:58 AM EDT 8:59 PM EDT
Moon 4:53 PM EDT (9/15) 3:10 AM EDT (9/15)
Length of Visible Light 13h 08m
Length of Day
12h 20m
Waxing Gibbous, 82% of the Moon is Illuminated
Sep 15
Waxing Gibbous
Sep 19
Full
Sep 26
Last Quarter
Oct 4
New
Oct 11
First Quarter

Hourly Weather History & Observations

Time (EDT) Temp. Heat Index Dew Point Humidity Pressure Visibility Wind Dir Wind Speed Gust Speed Precip Events Conditions
12:15 AM 73.4 °F - 71.6 °F 94% 30.00 in 7.0 mi Calm Calm - N/A   Scattered Clouds
12:35 AM 75.2 °F - 71.6 °F 89% 29.99 in 7.0 mi Calm Calm - N/A   Scattered Clouds
12:53 AM 75.9 °F - 72.0 °F 87% 29.98 in - Calm Calm - N/A   Unknown
12:55 AM 73.4 °F - 71.6 °F 94% 29.99 in 5.0 mi Calm Calm - N/A   Scattered Clouds
1:15 AM 73.4 °F - 71.6 °F 94% 30.00 in 2.5 mi Calm Calm - N/A   Scattered Clouds
1:35 AM 73.4 °F - 71.6 °F 94% 29.99 in 4.0 mi SE 3.5 mph - N/A   Scattered Clouds
1:53 AM 75.9 °F - 73.0 °F 91% 29.98 in - Calm Calm - N/A   Unknown
1:55 AM 73.4 °F - 71.6 °F 94% 29.99 in 4.0 mi Calm Calm - N/A   Clear
2:15 AM 73.4 °F - 71.6 °F 94% 29.99 in 5.0 mi Calm Calm - N/A   Clear
2:35 AM 73.4 °F - 71.6 °F 94% 29.99 in 3.0 mi Calm Calm - N/A   Clear
2:53 AM 73.9 °F - 71.1 °F 91% 29.98 in - Calm Calm - N/A   Unknown
2:55 AM 71.6 °F - 69.8 °F 94% 30.00 in 2.5 mi Calm Calm - N/A   Clear
3:15 AM 73.4 °F - 71.6 °F 94% 30.00 in 2.5 mi Calm Calm - N/A   Clear
3:35 AM 71.6 °F - 71.6 °F 100% 29.99 in 3.0 mi NE 3.5 mph - N/A   Clear
3:53 AM 75.0 °F - 72.0 °F 90% 29.98 in - NE 3.5 mph - N/A   Unknown
3:55 AM 71.6 °F - 71.6 °F 100% 29.99 in 4.0 mi ENE 3.5 mph - N/A   Clear
4:15 AM 71.6 °F - 71.6 °F 100% 29.99 in 5.0 mi Calm Calm - N/A   Clear
4:35 AM 71.6 °F - 69.8 °F 94% 30.00 in 5.0 mi Calm Calm - N/A   Clear
4:53 AM 75.0 °F - 71.1 °F 87% 29.98 in - ESE 5.8 mph - N/A   Unknown
4:55 AM 71.6 °F - 69.8 °F 94% 30.00 in 7.0 mi ESE 5.8 mph - N/A   Clear
5:15 AM 71.6 °F - 71.6 °F 100% 30.00 in 5.0 mi East 3.5 mph - N/A   Clear
5:35 AM 71.6 °F - 69.8 °F 94% 30.00 in 5.0 mi ESE 4.6 mph - N/A   Clear
5:53 AM 75.0 °F - 71.1 °F 87% 29.99 in - Calm Calm - N/A   Unknown
5:55 AM 71.6 °F - 69.8 °F 94% 30.01 in 5.0 mi Calm Calm - N/A   Clear
6:15 AM 71.6 °F - 69.8 °F 94% 30.01 in 5.0 mi Calm Calm - N/A   Clear
6:35 AM 71.6 °F - 69.8 °F 94% 30.02 in 4.0 mi Calm Calm - N/A   Clear
6:53 AM 73.0 °F - 69.1 °F 87% 30.00 in - Calm Calm - N/A   Unknown
6:55 AM 69.8 °F - 69.8 °F 100% 30.02 in 3.0 mi Calm Calm - N/A   Clear
7:15 AM 71.6 °F - 69.8 °F 94% 30.02 in 3.0 mi Calm Calm - N/A   Clear
7:35 AM 71.6 °F - 69.8 °F 94% 30.04 in 2.5 mi Calm Calm - N/A   Clear
7:53 AM 73.0 °F - 70.0 °F 90% 30.02 in - ESE 3.5 mph - N/A   Unknown
7:55 AM 71.6 °F - 69.8 °F 94% 30.04 in 3.0 mi East 4.6 mph - N/A   Clear
8:15 AM 71.6 °F - 69.8 °F 94% 30.04 in 4.0 mi ESE 4.6 mph - N/A   Clear
8:35 AM 73.4 °F - 71.6 °F 94% 30.05 in 5.0 mi East 3.5 mph - N/A   Clear
8:53 AM 77.0 °F - 72.0 °F 84% 30.04 in - Variable 3.5 mph - N/A   Unknown
8:55 AM 73.4 °F - 71.6 °F 94% 30.06 in 7.0 mi Calm Calm - N/A   Clear
9:15 AM 77.0 °F - 71.6 °F 83% 30.06 in 7.0 mi ESE 6.9 mph - N/A   Clear
9:35 AM 78.8 °F - 71.6 °F 78% 30.07 in 7.0 mi East 5.8 mph - N/A   Clear
9:53 AM 82.0 °F 87.4 °F 73.0 °F 74% 30.06 in - ENE 3.5 mph - N/A   Unknown
9:55 AM 80.6 °F 85.4 °F 73.4 °F 79% 30.07 in 7.0 mi Calm Calm - N/A   Clear
10:15 AM 80.6 °F 84.6 °F 71.6 °F 74% 30.08 in 10.0 mi East 3.5 mph - N/A   Clear
10:35 AM 82.4 °F 87.2 °F 71.6 °F 70% 30.08 in 10.0 mi SE 5.8 mph - N/A   Clear
10:53 AM 86.0 °F 93.0 °F 73.0 °F 65% 30.06 in - ESE 8.1 mph - N/A   Unknown
10:55 AM 82.4 °F 87.2 °F 71.6 °F 70% 30.08 in 10.0 mi SE 6.9 mph - N/A   Clear
11:15 AM 86.0 °F 91.8 °F 71.6 °F 62% 30.08 in 10.0 mi ESE 5.8 mph - N/A   Clear
11:35 AM 86.0 °F 91.8 °F 71.6 °F 62% 30.07 in 10.0 mi SE 5.8 mph - N/A   Clear
11:53 AM 89.1 °F 97.0 °F 73.0 °F 59% 30.06 in - SE 8.1 mph - N/A   Unknown
11:55 AM 87.8 °F 93.8 °F 71.6 °F 58% 30.07 in 10.0 mi SE 6.9 mph - N/A   Clear
12:15 PM 87.8 °F 93.8 °F 71.6 °F 58% 30.07 in 10.0 mi ENE 5.8 mph - N/A   Clear
12:35 PM 87.8 °F 93.8 °F 71.6 °F 58% 30.06 in 10.0 mi East 4.6 mph - N/A   Scattered Clouds
12:53 PM 91.9 °F 98.4 °F 71.1 °F 50% 30.04 in - ESE 6.9 mph - N/A   Unknown
12:55 PM 89.6 °F 94.7 °F 69.8 °F 52% 30.06 in 10.0 mi ESE 4.6 mph - N/A   Clear
1:15 PM 89.6 °F 93.4 °F 68.0 °F 49% 30.05 in 10.0 mi ENE 4.6 mph - N/A   Clear
1:35 PM 89.6 °F 93.4 °F 68.0 °F 49% 30.05 in 10.0 mi ENE 6.9 mph - N/A   Clear
1:53 PM 93.9 °F 100.3 °F 70.0 °F 46% 30.03 in - Calm Calm - N/A   Unknown
1:55 PM 91.4 °F 95.4 °F 68.0 °F 46% 30.05 in 10.0 mi East 3.5 mph - N/A   Clear
2:15 PM 89.6 °F 93.4 °F 68.0 °F 49% 30.04 in 10.0 mi ENE 6.9 mph - N/A   Scattered Clouds
2:35 PM 91.4 °F 95.4 °F 68.0 °F 46% 30.04 in 10.0 mi ENE 3.5 mph - N/A   Scattered Clouds
2:53 PM 91.9 °F 96.9 °F 69.1 °F 47% 30.02 in - East 3.5 mph - N/A   Unknown
2:55 PM 89.6 °F 93.4 °F 68.0 °F 49% 30.03 in 10.0 mi East 4.6 mph - N/A   Scattered Clouds
3:15 PM 91.4 °F 96.8 °F 69.8 °F 49% 30.03 in 10.0 mi NE 4.6 mph - N/A   Mostly Cloudy
3:35 PM 89.6 °F 93.4 °F 68.0 °F 49% 30.02 in 10.0 mi ENE 6.9 mph - N/A   Mostly Cloudy
3:53 PM 93.0 °F 97.9 °F 69.1 °F 45% 30.00 in - Variable 3.5 mph - N/A   Unknown
3:55 PM 91.4 °F 93.2 °F 64.4 °F 41% 30.01 in 10.0 mi East 5.8 mph - N/A   Scattered Clouds
4:15 PM 91.4 °F 93.2 °F 64.4 °F 41% 30.01 in 10.0 mi NE 5.8 mph - N/A   Scattered Clouds
4:35 PM 91.4 °F 95.4 °F 68.0 °F 46% 30.00 in 10.0 mi ESE 4.6 mph - N/A   Scattered Clouds
4:53 PM 91.0 °F 96.6 °F 70.0 °F 50% 29.99 in - ENE 3.5 mph - N/A   Unknown
4:55 PM 87.8 °F 91.4 °F 68.0 °F 52% 30.00 in 10.0 mi ENE 3.5 mph - N/A   Overcast
5:15 PM 87.8 °F 91.4 °F 68.0 °F 52% 30.00 in 10.0 mi Calm Calm - N/A   Scattered Clouds
5:35 PM 87.8 °F 91.4 °F 68.0 °F 52% 30.00 in 10.0 mi East 3.5 mph - N/A   Scattered Clouds
5:53 PM 89.1 °F 93.7 °F 69.1 °F 52% 29.99 in - ESE 5.8 mph - N/A   Unknown
5:55 PM 87.8 °F 91.4 °F 68.0 °F 52% 30.01 in 10.0 mi East 5.8 mph - N/A   Mostly Cloudy
6:15 PM 86.0 °F 89.4 °F 68.0 °F 55% 30.02 in 10.0 mi Calm Calm - N/A   Clear
6:35 PM 87.8 °F 91.4 °F 68.0 °F 52% 30.02 in 10.0 mi East 3.5 mph - N/A   Clear
6:53 PM 89.1 °F 96.0 °F 72.0 °F 57% 30.01 in - Calm Calm - N/A   Unknown
6:55 PM 87.8 °F 92.6 °F 69.8 °F 55% 30.02 in 10.0 mi East 3.5 mph - N/A   Clear
7:15 PM 86.0 °F 90.4 °F 69.8 °F 58% 30.04 in 10.0 mi Calm Calm - N/A Thunderstorm Clear
7:35 PM 80.6 °F 83.9 °F 69.8 °F 70% 30.06 in 10.0 mi SSE 13.8 mph 23.0 mph N/A Thunderstorm Scattered Clouds
7:53 PM 81.0 °F 83.8 °F 68.0 °F 65% 30.05 in - SSE 12.7 mph - N/A   Unknown
7:55 PM 78.8 °F - 68.0 °F 69% 30.07 in 10.0 mi SSE 11.5 mph 18.4 mph N/A   Mostly Cloudy
8:15 PM 77.0 °F - 64.4 °F 65% 30.07 in 10.0 mi South 5.8 mph 16.1 mph N/A Thunderstorm Thunderstorm
8:35 PM 77.0 °F - 68.0 °F 74% 30.08 in 10.0 mi SW 8.1 mph - N/A Rain Light Rain
8:53 PM 75.0 °F - 69.1 °F 82% 30.05 in - Calm Calm - N/A   Unknown
8:55 PM 73.4 °F - 68.0 °F 83% 30.07 in 10.0 mi Calm Calm - N/A Thunderstorm Scattered Clouds
9:15 PM 71.6 °F - 68.0 °F 88% 30.06 in 10.0 mi South 4.6 mph - N/A   Clear
9:35 PM 71.6 °F - 69.8 °F 94% 30.07 in 10.0 mi ESE 3.5 mph - N/A   Clear
9:53 PM 73.9 °F - 70.0 °F 87% 30.08 in - North 3.5 mph - N/A   Unknown
9:55 PM 71.6 °F - 69.8 °F 94% 30.09 in 10.0 mi North 3.5 mph - N/A Thunderstorm Clear
10:15 PM 73.4 °F - 69.8 °F 88% 30.11 in 10.0 mi Calm Calm - N/A   Clear
10:35 PM 73.4 °F - 69.8 °F 88% 30.10 in 10.0 mi ESE 4.6 mph - N/A   Clear
10:53 PM 75.0 °F - 70.0 °F 84% 30.09 in - Calm Calm - N/A   Unknown
10:55 PM 73.4 °F - 69.8 °F 88% 30.11 in 10.0 mi Calm Calm - N/A   Clear
11:15 PM 71.6 °F - 69.8 °F 94% 30.10 in 10.0 mi ESE 3.5 mph - N/A   Clear
11:35 PM 73.4 °F - 69.8 °F 88% 30.10 in 10.0 mi Calm Calm - N/A   Scattered Clouds
11:53 PM 75.0 °F - 70.0 °F 84% 30.09 in - Calm Calm - N/A   Unknown
11:55 PM 71.6 °F - 69.8 °F 94% 30.10 in 10.0 mi Calm Calm - N/A   Mostly Cloudy